Weather observations for the past three days for
Port Lavaca - Calhoun County Airport
| Date | Time (cdt) | Wind (kph) | Vis. (km) | Weather | Sky Cond. | Temperature (ºC) | Relative Humidity | Wind Chill (°C) | Heat Index (°C) | Pressure | Precipitation (cm) | ||||||
|---|---|---|---|---|---|---|---|---|---|---|---|---|---|---|---|---|---|
| Air | Dwpt | 6 hour | altimeter (cm) | sea level (mb) | 1 hr | 3 hr | 6 hr | ||||||||||
| Max. | Min. | ||||||||||||||||
| 03 | 00:15 | S 13 | 16.09 | Fair | CLR | 28.4 | 27 | 92% | 35 | 75.97 | 0.0 | ||||||
| 02 | 23:55 | SE 15 | 16.09 | Fair | CLR | 28.3 | 26.9 | 92% | 35 | 75.97 | 0.0 | ||||||
| 02 | 23:35 | S 11 | 16.09 | Fair | CLR | 28.2 | 26.6 | 91% | 35 | 75.97 | 0.0 | ||||||
| 02 | 23:15 | S 13 | 16.09 | Fair | CLR | 28.6 | 26.7 | 89% | 36 | 75.97 | 0.0 | ||||||
| 02 | 22:55 | S 15 | 16.09 | Fair | CLR | 28.6 | 26.6 | 89% | 35 | 75.97 | 0.0 | ||||||
| 02 | 22:35 | S 17 | 16.09 | Fair | CLR | 28.9 | 26.7 | 88% | 36 | 75.97 | 0.0 | ||||||
| 02 | 22:15 | S 17 | 14.48 | Fair | CLR | 28.9 | 26.7 | 88% | 36 | 75.95 | 0.0 | ||||||
| 02 | 21:55 | SE 17 | 14.48 | Fair | CLR | 29 | 26.7 | 87% | 36 | 75.92 | 0.0 | ||||||
| 02 | 21:35 | S 19 | 14.48 | Fair | CLR | 29 | 26.7 | 87% | 36 | 75.9 | 0.0 | ||||||
| 02 | 21:15 | S 17 | 14.48 | Fair | CLR | 29 | 26.6 | 87% | 36 | 75.9 | 0.0 | ||||||
| 02 | 20:55 | SE 19 | 14.48 | Fair | CLR | 29.2 | 26.7 | 86% | 37 | 75.87 | 0.0 | ||||||
| 02 | 20:35 | S 17 | 14.48 | Fair | CLR | 29.4 | 26.6 | 85% | 37 | 75.87 | 0.0 | ||||||
| 02 | 20:15 | SE 22 | 14.48 | Fair | CLR | 29.7 | 26.6 | 83% | 38 | 75.84 | 0.0 | ||||||
| 02 | 19:55 | S 24 | 12.87 | Fair | CLR | 30.1 | 26.3 | 80% | 38 | 75.84 | 0.0 | ||||||
| 02 | 19:35 | S 22 | 12.87 | Fair | CLR | 30.5 | 26.1 | 77% | 38 | 75.84 | 0.0 | ||||||
| 02 | 19:15 | S 30 | 16.09 | Fair | CLR | 31.2 | 26 | 74% | 39 | 75.84 | 0.0 | ||||||
| 02 | 18:55 | S 20 G 33 | 16.09 | Overcast | OVC100 | 32.2 | 25.6 | 36.4 | 32.2 | 68% | 40 | 76.53 | 0.0 | ||||
| 02 | 18:50 | SE 26 G 37 | 16.09 | Fair | CLR | 32.2 | 25.6 | 68% | 40 | 75.84 | 0.0 | ||||||
| 02 | 18:35 | S 28 G 35 | 16.09 | Fair | CLR | 32.5 | 25.2 | 65% | 40 | 75.84 | 0.0 | ||||||
| 02 | 18:15 | S 22 G 31 | 16.09 | Fair | CLR | 33.3 | 24.6 | 60% | 40 | 75.84 | 0.0 | ||||||
| 02 | 17:55 | S 22 | 16.09 | Fair | CLR | 34.1 | 23.4 | 54% | 40 | 75.82 | 0.0 | ||||||
| 02 | 17:35 | S 20 G 31 | 14.48 | Fair | CLR | 35 | 23 | 50% | 41 | 75.82 | 0.0 | ||||||
| 02 | 17:15 | S 20 G 35 | 16.09 | Fair | CLR | 35.1 | 22.1 | 47% | 40 | 75.82 | 0.0 | ||||||
| 02 | 16:55 | S 19 | 16.09 | Fair | CLR | 35.9 | 22.1 | 45% | 41 | 75.84 | 0.0 | ||||||
| 02 | 16:15 | S 22 | 16.09 | Fair | CLR | 35.7 | 20.8 | 42% | 39 | 75.84 | 0.0 | ||||||
| 02 | 15:55 | S 20 | 16.09 | Fair | CLR | 35.8 | 21.4 | 43% | 40 | 75.87 | 0.0 | ||||||
| 02 | 15:35 | S 19 G 33 | 16.09 | Fair | CLR | 35.7 | 22.7 | 47% | 41 | 75.9 | 0.0 | ||||||
| 02 | 15:15 | S 24 | 16.09 | Fair | CLR | 36.2 | 23.4 | 48% | 43 | 75.9 | 0.0 | ||||||
| 02 | 14:55 | S 19 | 16.09 | Fair | CLR | 35.9 | 24.1 | 51% | 43 | 75.92 | 0.0 | ||||||
| 02 | 14:35 | S 19 G 30 | 16.09 | Fair | CLR | 35.8 | 24.6 | 52% | 44 | 75.95 | 0.0 | ||||||
| 02 | 14:15 | S 20 | 16.09 | A Few Clouds | FEW046 | 35.8 | 24.9 | 53% | 44 | 75.95 | 0.0 | ||||||
| 02 | 13:55 | SW 15 | 14.48 | Fair | CLR | 35.6 | 23.9 | 51% | 42 | 75.97 | 0.0 | ||||||
| 02 | 13:35 | S 19 G 28 | 14.48 | A Few Clouds | FEW330 | 36 | 24.7 | 52% | 44 | 76 | 0.0 | ||||||
| 02 | 13:15 | SW 13 G 30 | 16.09 | A Few Clouds | FEW043 | 35.1 | 24.7 | 55% | 43 | 76 | 0.0 | ||||||
| 02 | 12:55 | SW 11 G 26 | 16.09 | A Few Clouds | FEW040 | 34.7 | 25 | 35.2 | 27.4 | 57% | 43 | 76.05 | 0.0 | ||||
| 02 | 12:35 | S 17 | 14.48 | Partly Cloudy | SCT039 | 35 | 25.3 | 57% | 44 | 76.07 | 0.0 | ||||||
| 02 | 12:15 | SW 22 G 28 | 14.48 | Partly Cloudy | SCT038 | 34.7 | 25.5 | 59% | 44 | 76.1 | 0.0 | ||||||
| 02 | 11:55 | SW 13 G 26 | 16.09 | A Few Clouds | FEW036 | 33.7 | 25.7 | 63% | 43 | 76.12 | 0.0 | ||||||
| 02 | 11:35 | Vrbl 11 | 16.09 | A Few Clouds | FEW033 | 33.7 | 25.6 | 63% | 42 | 76.12 | 0.0 | ||||||
| 02 | 11:15 | S 26 | 16.09 | Mostly Cloudy | BKN032 | 33.4 | 25.7 | 64% | 42 | 76.12 | 0.0 | ||||||
| 02 | 10:55 | S 20 | 16.09 | Mostly Cloudy | BKN031 | 33 | 25.9 | 66% | 42 | 76.12 | 0.0 | ||||||
| 02 | 10:35 | SW 22 G 33 | 16.09 | Partly Cloudy | SCT028 | 32.5 | 25.7 | 67% | 41 | 76.12 | 0.0 | ||||||
| 02 | 10:15 | S 20 | 16.09 | A Few Clouds | FEW028 | 32 | 26 | 71% | 41 | 76.1 | 0.0 | ||||||
| 02 | 09:55 | SW 24 | 16.09 | A Few Clouds | FEW022 | 30.6 | 26 | 76% | 38 | 76.1 | 0.0 | ||||||
| 02 | 09:35 | SW 26 | 16.09 | A Few Clouds | FEW022 | 30.7 | 26.6 | 79% | 39 | 76.1 | 0.0 | ||||||
| 02 | 09:15 | SW 20 | 16.09 | Fair | CLR | 29.9 | 26.8 | 83% | 38 | 76.1 | 0.0 | ||||||
| 02 | 08:55 | SW 15 | 16.09 | A Few Clouds | FEW080 | 29.2 | 26.8 | 87% | 37 | 76.1 | 0.0 | ||||||
| 02 | 08:35 | SW 11 | 16.09 | A Few Clouds | FEW080 | 28.7 | 26.7 | 89% | 36 | 76.1 | 0.0 | ||||||
| 02 | 08:15 | SW 7 | 16.09 | Fair | CLR | 28.1 | 26.7 | 92% | 34 | 76.1 | 0.0 | ||||||
| 02 | 07:55 | Calm | 16.09 | Fair | CLR | 27.5 | 26.6 | 95% | 33 | 76.07 | 0.0 | ||||||
| 02 | 07:35 | SW 9 | 16.09 | A Few Clouds | FEW020 | 27.5 | 26.4 | 94% | 33 | 76.05 | 0.0 | ||||||
| 02 | 07:15 | SW 11 | 16.09 | Fair | CLR | 27.6 | 26.5 | 94% | 33 | 76.05 | 0.0 | ||||||
| 02 | 06:55 | SW 15 | 16.09 | Fair | CLR | 27.8 | 26.6 | 28.4 | 27.6 | 93% | 34 | 76.02 | 0.0 | ||||
| 02 | 06:35 | SW 20 | 16.09 | A Few Clouds | FEW080 | 27.9 | 26.7 | 93% | 34 | 76.02 | 0.0 | ||||||
| 02 | 06:15 | SW 15 | 16.09 | Mostly Cloudy | BKN080 | 27.8 | 26.7 | 94% | 34 | 76.02 | 0.0 | ||||||
| 02 | 05:55 | SW 13 | 16.09 | Fair | CLR | 27.6 | 26.7 | 95% | 33 | 76.02 | 0.0 | ||||||
| 02 | 05:35 | SW 17 | 16.09 | Fair | CLR | 27.6 | 26.6 | 94% | 33 | 76 | 0.0 | ||||||
| 02 | 05:15 | SW 13 | 16.09 | Fair | CLR | 27.6 | 26.5 | 94% | 33 | 76 | 0.0 | ||||||
| 02 | 04:55 | S 13 | 16.09 | Fair | CLR | 27.6 | 26.4 | 93% | 33 | 76 | 0.0 | ||||||
| 02 | 04:35 | S 11 | 16.09 | Fair | CLR | 27.7 | 26.4 | 93% | 33 | 76 | 0.0 | ||||||
| 02 | 04:15 | SW 11 | 16.09 | Fair | CLR | 27.8 | 26.3 | 92% | 33 | 76 | 0.0 | ||||||
| 02 | 04:00 | SW 13 | 16.09 | Fair | CLR | 27.9 | 26.5 | 92% | 34 | 76 | 0.0 | ||||||
| 02 | 03:55 | SW 15 | 16.09 | Fair | CLR | 28 | 26.5 | 92% | 34 | 76 | 0.0 | ||||||
| 02 | 03:35 | SW 17 | 16.09 | Fair | CLR | 28.1 | 26.5 | 91% | 34 | 76.02 | 0.0 | ||||||
| 02 | 03:30 | SW 17 | 16.09 | Fair | CLR | 28.1 | 26.5 | 91% | 34 | 76.02 | 0.0 | ||||||
| 02 | 03:15 | SW 15 | 16.09 | Fair | CLR | 28.2 | 26.5 | 91% | 34 | 76.02 | 0.0 | ||||||
| 02 | 02:55 | SW 15 | 16.09 | Fair | CLR | 28.4 | 26.4 | 89% | 35 | 76.05 | 0.0 | ||||||
| 02 | 02:35 | S 13 | 16.09 | Fair | CLR | 28.2 | 26.4 | 90% | 34 | 76.05 | 0.0 | ||||||
| 02 | 02:15 | S 11 | 16.09 | Fair | CLR | 28.1 | 26.9 | 93% | 35 | 76.05 | 0.0 | ||||||
| 02 | 01:55 | S 9 | 16.09 | Fair | CLR | 28.1 | 26.9 | 93% | 35 | 76.05 | 0.0 | ||||||
| 02 | 01:35 | S 13 | 14.48 | Fair | CLR | 28 | 26.9 | 94% | 34 | 76.02 | 0.0 | ||||||
| 02 | 01:15 | S 13 | 16.09 | Fair | CLR | 28 | 26.9 | 94% | 34 | 76.02 | 0.0 | ||||||
| 02 | 00:55 | S 13 | 16.09 | Fair | CLR | 28 | 26.8 | 32 | 27.5 | 93% | 34 | 76.02 | 0.0 | ||||
| 02 | 00:35 | S 11 | 16.09 | Fair | CLR | 28.1 | 26.8 | 93% | 35 | 76.02 | 0.0 | ||||||
| 02 | 00:15 | S 13 | 16.09 | Fair | CLR | 28 | 26.7 | 93% | 34 | 76.02 | 0.0 | ||||||
| 01 | 23:55 | S 11 | 16.09 | Fair | CLR | 27.8 | 26.7 | 94% | 34 | 76.02 | 0.0 | ||||||
| 01 | 23:35 | S 11 | 16.09 | Fair | CLR | 27.8 | 26.6 | 93% | 34 | 76.02 | 0.0 | ||||||
| 01 | 23:20 | S 9 | 16.09 | Fair | CLR | 27.6 | 26.4 | 93% | 33 | 76.02 | 0.0 | ||||||
| 01 | 23:15 | S 11 | 16.09 | Fair | CLR | 27.6 | 26.5 | 94% | 33 | 76.05 | 0.0 | ||||||
| 01 | 22:55 | S 9 | 16.09 | Fair | CLR | 27.7 | 26.4 | 93% | 33 | 76.02 | 0.0 | ||||||
| 01 | 22:50 | S 9 | 16.09 | Fair | CLR | 27.7 | 26.4 | 93% | 33 | 76.02 | 0.0 | ||||||
| 01 | 22:35 | S 9 | 16.09 | Fair | CLR | 27.8 | 26.3 | 92% | 33 | 76 | 0.0 | ||||||
| 01 | 22:15 | S 11 | 16.09 | Fair | CLR | 27.9 | 26.3 | 91% | 34 | 76 | 0.0 | ||||||
| 01 | 22:10 | S 11 | 16.09 | Fair | CLR | 27.9 | 26.1 | 90% | 33 | 76 | 0.0 | ||||||
| 01 | 21:55 | S 13 | 16.09 | Fair | CLR | 28 | 26 | 89% | 34 | 75.97 | 0.0 | ||||||
| 01 | 21:35 | S 9 | 16.09 | Fair | CLR | 28 | 25.6 | 87% | 33 | 75.95 | 0.0 | ||||||
| 01 | 21:15 | S 9 | 16.09 | Fair | CLR | 28.4 | 25.3 | 83% | 34 | 75.92 | 0.0 | ||||||
| 01 | 20:55 | S 11 | 14.48 | Fair | CLR | 28.9 | 24.4 | 77% | 34 | 75.9 | 0.0 | ||||||
| 01 | 20:35 | S 9 | 16.09 | Fair | CLR | 29.1 | 24.1 | 74% | 34 | 75.92 | 0.0 | ||||||
| 01 | 20:15 | S 13 | 14.48 | Fair | CLR | 29.4 | 23.7 | 71% | 34 | 75.92 | 0.0 | ||||||
| 01 | 19:55 | S 15 | 6.44 | A Few Clouds with Haze | FEW080 | 30.2 | 23.5 | 67% | 35 | 75.9 | 0.0 | ||||||
| 01 | 19:35 | S 13 | 6.44 | Partly Cloudy with Haze | SCT070 | 30.6 | 23.9 | 67% | 36 | 75.92 | 0.0 | ||||||
| 01 | 19:15 | S 19 | 6.44 | Mostly Cloudy with Haze | BKN070 | 31.3 | 23.9 | 65% | 37 | 75.92 | 0.0 | ||||||
| 01 | 18:55 | SE 20 | 6.44 | Fair with Haze | CLR | 32.4 | 23 | 36.6 | 32.4 | 58% | 37 | 75.9 | 0.0 | ||||
| 01 | 18:35 | SE 20 | 6.44 | A Few Clouds with Haze | FEW080 | 32.7 | 22.8 | 56% | 37 | 75.9 | 0.0 | ||||||
| 01 | 18:15 | SE 20 | 8.05 | Partly Cloudy with Haze | SCT080 | 33.6 | 22.8 | 53% | 39 | 75.9 | 0.0 | ||||||
| 01 | 17:55 | S 19 | 9.66 | Haze Thunderstorm in Vicinity | FEW060 SCT120 | 33.9 | 22.6 | 52% | 39 | 75.87 | 0.0 | ||||||
| 01 | 17:35 | S 20 | 9.66 | Haze Thunderstorm in Vicinity | BKN060 | 33.8 | 23.2 | 54% | 39 | 75.87 | 0.0 | ||||||
| 01 | 17:15 | S 20 | 9.66 | Overcast with Haze | OVC060 | 34.1 | 23.4 | 54% | 40 | 75.87 | 0.0 | ||||||
| 01 | 16:55 | S 15 | 9.66 | Partly Cloudy with Haze | SCT055 | 35.1 | 23.1 | 50% | 41 | 75.87 | 0.0 | ||||||
| 01 | 16:35 | Vrbl 9 | 9.66 | A Few Clouds with Haze | FEW070 | 35.5 | 23.2 | 49% | 41 | 75.87 | 0.0 | ||||||
| 01 | 16:15 | S 17 | 11.27 | A Few Clouds | FEW050 | 35.3 | 23.4 | 50% | 41 | 75.87 | 0.0 | ||||||
| 01 | 15:55 | SE 15 | 9.66 | Mostly Cloudy with Haze | SCT050 BKN060 | 34.4 | 24 | 55% | 41 | 75.9 | 0.0 | ||||||
| 01 | 15:35 | SE 15 G 28 | 9.66 | Mostly Cloudy with Haze | SCT050 BKN065 | 34.4 | 24.3 | 56% | 41 | 75.9 | 0.0 | ||||||
| 01 | 15:15 | Vrbl 6 | 9.66 | Mostly Cloudy with Haze | BKN055 | 34.6 | 23.5 | 52% | 41 | 75.92 | 0.0 | ||||||
| 01 | 14:55 | S 15 | 9.66 | Mostly Cloudy with Haze | BKN055 | 36 | 24 | 50% | 43 | 75.95 | 0.0 | ||||||
| 01 | 14:35 | Vrbl 11 | 11.27 | A Few Clouds | FEW050 | 35.5 | 23.8 | 51% | 42 | 75.97 | 0.0 | ||||||
| 01 | 14:15 | SW 15 | 11.27 | Fair | CLR | 35 | 24 | 53% | 42 | 76 | 0.0 | ||||||
| 01 | 13:55 | S 13 | 11.27 | A Few Clouds | FEW055 | 34.5 | 24.5 | 56% | 42 | 76.02 | 0.0 | ||||||
| 01 | 13:35 | S 15 | 11.27 | Partly Cloudy | SCT060 SCT360 | 34.3 | 25.1 | 59% | 42 | 76.05 | 0.0 | ||||||
| 01 | 13:15 | Calm | 12.87 | Mostly Cloudy | BKN055 BKN065 | 33.7 | 22.8 | 53% | 39 | 76.05 | 0.0 | ||||||
| 01 | 12:55 | N 6 | 12.87 | Partly Cloudy | FEW050 SCT370 | 33.7 | 22.8 | 34.3 | 24.4 | 53% | 39 | 76.07 | 0.0 | ||||
| 01 | 12:35 | Vrbl 7 | 12.87 | A Few Clouds | FEW320 | 34 | 23.4 | 54% | 40 | 76.1 | 0.0 | ||||||
| 01 | 12:15 | Vrbl 6 | 12.87 | Partly Cloudy | SCT065 | 33.3 | 23.6 | 57% | 39 | 76.12 | 0.0 | ||||||
| 01 | 11:55 | NW 7 | 12.87 | Partly Cloudy | FEW042 SCT050 | 32.9 | 24 | 59% | 39 | 76.15 | 0.0 | ||||||
| 01 | 11:35 | Vrbl 6 | 14.48 | A Few Clouds | FEW040 | 33 | 24.1 | 60% | 39 | 76.15 | 0.0 | ||||||
| 01 | 11:15 | Calm | 14.48 | Partly Cloudy | FEW031 SCT047 | 32.4 | 25 | 65% | 40 | 76.15 | 0.0 | ||||||
| 01 | 10:55 | NW 11 | 14.48 | Partly Cloudy | FEW029 SCT050 | 32.4 | 26.2 | 70% | 42 | 76.15 | 0.0 | ||||||
| 01 | 10:35 | Vrbl 9 | 14.48 | A Few Clouds | FEW024 | 31.8 | 26.1 | 72% | 40 | 76.15 | 0.0 | ||||||
| 01 | 10:15 | NW 7 | 14.48 | Mostly Cloudy | SCT020 BKN026 | 30.9 | 26.5 | 77% | 40 | 76.15 | 0.0 | ||||||
| 01 | 09:55 | Vrbl 7 | 14.48 | Partly Cloudy | SCT018 | 30.3 | 27 | 83% | 39 | 76.15 | 0.0 | ||||||
| 01 | 09:35 | W 7 | 16.09 | Fair | CLR | 30.2 | 27.2 | 84% | 40 | 76.15 | 0.0 | ||||||
| 01 | 09:15 | N 7 | 16.09 | Fair | CLR | 29.4 | 27.2 | 88% | 38 | 76.15 | 0.0 | ||||||
| 01 | 08:55 | N 6 | 14.48 | Fair | CLR | 28 | 26.6 | 92% | 34 | 76.15 | 0.0 | ||||||
| 01 | 08:35 | N 6 | 16.09 | Fair | CLR | 27.1 | 26.5 | 97% | 32 | 76.15 | 0.0 | ||||||
| 01 | 08:15 | N 6 | 16.09 | Fair | CLR | 26.1 | 25.9 | 99% | 29 | 76.12 | 0.0 | ||||||
| 01 | 07:55 | Calm | 16.09 | Partly Cloudy | FEW022 SCT031 | 25.1 | 25.1 | 100% | 26 | 76.1 | 0.0 | ||||||
| 01 | 07:35 | Calm | 16.09 | Partly Cloudy | SCT022 | 25.3 | 25.3 | 100% | 26 | 76.1 | 0.0 | ||||||
| 01 | 07:15 | N 6 | 16.09 | A Few Clouds | FEW022 | 24.4 | 24.4 | 100% | 24 | 76.07 | 0.0 | ||||||
| 01 | 06:55 | N 7 | 16.09 | Partly Cloudy | SCT021 | 24.9 | 24.8 | 26.1 | 23.6 | 99% | 25 | 76.05 | 0.0 | ||||
| 01 | 06:35 | N 7 | 16.09 | Fair | CLR | 24.9 | 24.7 | 99% | 25 | 76.05 | 0.0 | ||||||
| 01 | 06:15 | NE 6 | 16.09 | Fair | CLR | 24.2 | 24 | 99% | 23 | 76.02 | 0.0 | ||||||
| 01 | 05:35 | N 6 | 16.09 | Fair | CLR | 24.4 | 24.4 | 100% | 24 | 76.02 | 0.0 | ||||||
| 01 | 05:15 | N 6 | 16.09 | Fair | CLR | 24.3 | 24.3 | 100% | 23 | 76.05 | 0.0 | ||||||
| 01 | 04:55 | Calm | 14.48 | Fair | CLR | 25 | 25 | 100% | 25 | 76.05 | 0.0 | ||||||
| 01 | 04:35 | SW 6 | 16.09 | Fair | CLR | 24.6 | 24.5 | 99% | 24 | 76.05 | 0.0 | ||||||
| 01 | 04:15 | SW 6 | 16.09 | Fair | CLR | 25.1 | 24.9 | 99% | 26 | 76.05 | 0.0 | ||||||
| 01 | 03:55 | S 6 | 16.09 | Fair | CLR | 25.8 | 25.8 | 100% | 28 | 76.07 | 0.0 | ||||||
| 01 | 03:35 | S 6 | 16.09 | Fair | CLR | 25.7 | 25.7 | 100% | 27 | 76.05 | 0.0 | ||||||
| 01 | 03:15 | S 6 | 16.09 | Fair | CLR | 25.4 | 25.3 | 99% | 27 | 76.07 | 0.0 | ||||||
| 01 | 02:55 | S 6 | 16.09 | Fair | CLR | 25.3 | 25 | 98% | 26 | 76.07 | 0.0 | ||||||
| 01 | 02:35 | S 7 | 16.09 | Fair | CLR | 25.4 | 25.2 | 99% | 27 | 76.07 | 0.0 | ||||||
| 01 | 02:15 | SE 6 | 16.09 | Fair | CLR | 25.8 | 25.2 | 97% | 28 | 76.07 | 0.0 | ||||||
| 01 | 01:55 | S 6 | 16.09 | Fair | CLR | 25.4 | 24.8 | 97% | 27 | 76.07 | 0.0 | ||||||
| 01 | 01:35 | S 7 | 16.09 | Fair | CLR | 25.5 | 24.8 | 96% | 27 | 76.07 | 0.0 | ||||||
| 01 | 01:15 | Calm | 16.09 | Fair | CLR | 25.7 | 24.6 | 94% | 27 | 76.1 | 0.0 | ||||||
| 01 | 00:55 | Calm | 14.48 | Fair | CLR | 26 | 25.1 | 31.4 | 26 | 95% | 28 | 76.07 | 0.0 | ||||
| 01 | 00:35 | S 6 | 12.87 | Fair | CLR | 26 | 25 | 94% | 28 | 76.07 | 0.0 | ||||||
| 01 | 00:15 | Calm | 12.87 | Fair | CLR | 26.1 | 25.1 | 94% | 28 | 76.07 | 0.0 | ||||||
| 31 | 23:55 | Calm | 12.87 | Fair | CLR | 26.6 | 24.9 | 90% | 30 | 76.07 | 0.0 | ||||||
| 31 | 23:35 | S 6 | 12.87 | Fair | CLR | 26.7 | 25 | 90% | 30 | 76.07 | 0.0 | ||||||
| 31 | 23:15 | SE 7 | 12.87 | Fair | CLR | 27.1 | 25.1 | 89% | 31 | 76.07 | 0.0 | ||||||
| 31 | 22:55 | SE 7 | 14.48 | Fair | CLR | 27 | 25.2 | 90% | 31 | 76.07 | 0.0 | ||||||
| 31 | 22:35 | S 6 | 11.27 | Fair | CLR | 27.2 | 25.4 | 90% | 31 | 76.07 | 0.0 | ||||||
| 31 | 22:15 | S 6 | 14.48 | Fair | CLR | 27.4 | 25.4 | 89% | 32 | 76.05 | 0.0 | ||||||
| 31 | 21:55 | S 9 | 14.48 | Fair | CLR | 27.7 | 25.5 | 88% | 32 | 76.02 | 0.0 | ||||||
| 31 | 21:35 | SE 13 | 14.48 | Fair | CLR | 27.9 | 25.5 | 87% | 33 | 76 | 0.0 | ||||||
| 31 | 21:15 | SE 13 | 14.48 | Fair | CLR | 28.4 | 25.7 | 85% | 34 | 76 | 0.0 | ||||||
| 31 | 20:55 | SE 13 | 16.09 | Fair | CLR | 28.8 | 26 | 85% | 35 | 75.97 | 0.0 | ||||||
| 31 | 20:35 | SE 15 | 14.48 | Fair | CLR | 29.1 | 26.1 | 84% | 36 | 75.97 | 0.0 | ||||||
| 31 | 20:15 | SE 20 | 9.66 | Fair with Haze | CLR | 29.7 | 26 | 81% | 37 | 75.97 | 0.0 | ||||||
| 31 | 19:55 | SE 22 | 9.66 | Fair with Haze | CLR | 30.2 | 26.5 | 81% | 38 | 75.97 | 0.0 | ||||||
| 31 | 19:35 | SE 22 | 9.66 | Fair with Haze | CLR | 30.6 | 26.6 | 79% | 39 | 75.97 | 0.0 | ||||||
| 31 | 19:15 | SE 26 | 9.66 | Fair with Haze | CLR | 31.1 | 26.7 | 77% | 40 | 75.95 | 0.0 | ||||||
| 31 | 18:55 | SE 28 | 12.87 | Fair | CLR | 31.8 | 26.8 | 35.1 | 31.8 | 75% | 42 | 75.95 | 0.0 | ||||
| 31 | 18:35 | SE 28 | 11.27 | Fair | CLR | 32 | 26.1 | 71% | 41 | 75.95 | 0.0 | ||||||
| 31 | 18:15 | SE 26 | 12.87 | Fair | CLR | 32.8 | 25.8 | 67% | 41 | 75.95 | 0.0 | ||||||
| 31 | 17:55 | E 24 | 12.87 | Fair | CLR | 33.4 | 25.7 | 64% | 42 | 75.95 | 0.0 | ||||||
| 31 | 17:35 | SE 24 | 12.87 | Fair | CLR | 33.6 | 25.6 | 63% | 42 | 75.95 | 0.0 | ||||||
| 31 | 17:15 | SE 24 | 12.87 | Fair | CLR | 33.8 | 25.2 | 61% | 42 | 75.95 | 0.0 | ||||||
| 31 | 16:55 | SE 22 | 12.87 | Fair | CLR | 34.3 | 24.5 | 57% | 42 | 75.97 | 0.0 | ||||||
| 31 | 16:35 | SE 24 | 14.48 | Fair | CLR | 34.3 | 25.4 | 60% | 43 | 75.97 | 0.0 | ||||||
| 31 | 16:15 | SE 24 | 12.87 | Fair | CLR | 34.6 | 26 | 61% | 44 | 75.97 | 0.0 | ||||||
| 31 | 15:55 | SE 19 G 31 | 14.48 | Fair | CLR | 34.9 | 25.4 | 58% | 44 | 76 | 0.0 | ||||||
| 31 | 15:35 | SE 22 | 12.87 | Fair | CLR | 33.5 | 24.5 | 59% | 41 | 76.02 | 0.0 | ||||||
| 31 | 15:15 | Vrbl 6 | 14.48 | Partly Cloudy | SCT060 | 32.3 | 24 | 62% | 38 | 76.05 | 0.0 | ||||||
| 31 | 14:55 | SE 17 | 14.48 | Mostly Cloudy | SCT049 BKN060 | 33.2 | 25.1 | 62% | 41 | 76.1 | 0.0 | ||||||
| 31 | 14:35 | SE 15 | 14.48 | Fair | CLR | 34.8 | 25.6 | 59% | 44 | 76.1 | 0.0 | ||||||
| 31 | 14:15 | SE 20 | 16.09 | Fair | CLR | 34.9 | 25.6 | 58% | 44 | 76.1 | 0.0 | ||||||
| 31 | 13:55 | SE 22 G 30 | 16.09 | Fair | CLR | 34.7 | 26 | 61% | 44 | 76.1 | 0.0 | ||||||
| 31 | 13:35 | E 17 | 16.09 | A Few Clouds | FEW340 | 34.9 | 26.4 | 61% | 45 | 76.12 | 0.0 | ||||||
| 31 | 13:15 | SE 15 G 30 | 16.09 | Fair | CLR | 34.1 | 25.8 | 62% | 43 | 76.15 | 0.0 | ||||||
| 31 | 12:35 | SE 17 | 16.09 | Mostly Cloudy | SCT040 BKN100 | 34.6 | 25.5 | 59% | 43 | 76.15 | 0.0 | ||||||
| 31 | 12:15 | SE 11 | 14.48 | Overcast | BKN039 OVC055 | 32.7 | 25 | 64% | 40 | 76.15 | 0.0 | ||||||
| 31 | 11:55 | Vrbl 7 | 14.48 | Overcast | BKN043 BKN050 OVC065 | 32.5 | 24.3 | 62% | 39 | 76.17 | 0.0 | ||||||
| 31 | 11:35 | Calm | 16.09 | Mostly Cloudy | BKN045 BKN050 | 32.5 | 24.1 | 61% | 39 | 76.17 | 0.0 | ||||||
| 31 | 11:15 | Vrbl 6 | 16.09 | A Few Clouds | FEW055 | 32.2 | 24 | 62% | 38 | 76.17 | 0.0 | ||||||
| 31 | 10:55 | Vrbl 9 | 14.48 | Fair | CLR | 32 | 24.3 | 64% | 38 | 76.17 | 0.0 | ||||||
| 31 | 10:35 | Vrbl 6 | 16.09 | A Few Clouds | FEW035 | 31.7 | 23.6 | 62% | 37 | 76.17 | 0.0 | ||||||
| 31 | 10:15 | S 13 | 16.09 | Partly Cloudy | FEW028 SCT035 | 32.6 | 24.9 | 64% | 40 | 76.17 | 0.0 | ||||||
| 31 | 09:55 | Calm | 16.09 | A Few Clouds | FEW022 | 31.2 | 25.7 | 73% | 39 | 76.15 | 0.0 | ||||||
| 31 | 09:35 | S 11 | 16.09 | Partly Cloudy | SCT021 | 30.5 | 26 | 77% | 38 | 76.15 | 0.0 | ||||||
| 31 | 09:15 | Calm | 16.09 | A Few Clouds | FEW019 | 29.9 | 26.9 | 84% | 38 | 76.15 | 0.0 | ||||||
| 31 | 08:55 | Calm | 16.09 | Fair | CLR | 29.5 | 27 | 86% | 38 | 76.15 | 0.0 | ||||||
| 31 | 08:35 | Calm | 16.09 | Fair | CLR | 29 | 27.2 | 90% | 37 | 76.12 | 0.0 | ||||||
| 31 | 08:15 | Calm | 16.09 | Fair | CLR | 27.1 | 25.9 | 93% | 31 | 76.1 | 0.0 | ||||||
| 31 | 07:55 | Calm | 16.09 | Partly Cloudy | FEW024 SCT050 | 26.7 | 26.3 | 98% | 31 | 76.07 | 0.0 | ||||||
| 31 | 07:35 | Calm | 16.09 | Mostly Cloudy | FEW023 BKN050 | 27 | 26.1 | 95% | 31 | 76.07 | 0.0 | ||||||
| 31 | 06:55 | NE 6 | 16.09 | Mostly Cloudy | BKN022 | 26 | 24.8 | 26.8 | 24.4 | 93% | 28 | 76.05 | 0.0 | ||||
| 31 | 06:35 | NE 6 | 11.27 | Overcast | OVC022 | 25.2 | 24.4 | 95% | 26 | 76.05 | 0.0 | ||||||
| 31 | 06:15 | NE 6 | 11.27 | Mostly Cloudy | BKN024 | 25.4 | 24.5 | 95% | 27 | 76.05 | 0.0 | ||||||
| 31 | 05:55 | Calm | 9.66 | Fog/Mist | CLR | 24.8 | 24.4 | 98% | 25 | 76.05 | 0.0 | ||||||
| 31 | 05:35 | Calm | 9.66 | Fog/Mist | CLR | 25.1 | 24.7 | 98% | 26 | 76.05 | 0.0 | ||||||
| 31 | 05:15 | Calm | 9.66 | Fog/Mist | CLR | 25.2 | 24.9 | 98% | 26 | 76.05 | 0.0 | ||||||
| 31 | 04:55 | Calm | 16.09 | Fair | CLR | 25.6 | 25.1 | 97% | 27 | 76.05 | 0.0 | ||||||
| 31 | 04:35 | Calm | 16.09 | Fair | CLR | 25.7 | 25.7 | 100% | 27 | 76.05 | 0.0 | ||||||
| 31 | 04:15 | Calm | 16.09 | Fair | CLR | 25.8 | 25.6 | 99% | 28 | 76.05 | 0.0 | ||||||
| 31 | 03:55 | SE 6 | 16.09 | Fair | CLR | 25.8 | 25.8 | 100% | 28 | 76.05 | 0.0 | ||||||
| 31 | 03:35 | SE 6 | 16.09 | Fair | CLR | 25.9 | 25.9 | 100% | 28 | 76.05 | 0.0 | ||||||
| 31 | 03:15 | SE 6 | 16.09 | Fair | CLR | 25.4 | 25.4 | 100% | 27 | 76.05 | 0.0 | ||||||
| 31 | 02:55 | S 6 | 16.09 | Fair | CLR | 25.9 | 25.9 | 100% | 28 | 76.05 | 0.0 | ||||||
| 31 | 02:35 | SE 6 | 16.09 | Fair | CLR | 26.3 | 26.3 | 100% | 29 | 76.07 | 0.0 | ||||||
| 31 | 02:15 | S 6 | 16.09 | Fair | CLR | 26.3 | 26.1 | 99% | 29 | 76.07 | 0.0 | ||||||
| 31 | 01:55 | S 6 | 16.09 | Fair | CLR | 26.7 | 26.3 | 98% | 31 | 76.1 | 0.0 | ||||||
| 31 | 01:35 | SE 7 | 16.09 | Fair | CLR | 26.3 | 25.8 | 97% | 29 | 76.1 | 0.0 | ||||||
| 31 | 01:15 | SE 6 | 16.09 | Fair | CLR | 26.8 | 26.2 | 97% | 31 | 76.12 | 0.0 | ||||||
| 31 | 00:55 | SE 7 | 16.09 | Fair | CLR | 26.3 | 25.8 | 31.4 | 26.3 | 97% | 29 | 76.1 | 0.0 | ||||
| 31 | 00:35 | SE 7 | 16.09 | Fair | CLR | 26.5 | 25.8 | 96% | 30 | 76.1 | 0.0 | ||||||
| Date | Time (cdt) | Wind (kph) | Vis. (km) | Weather | Sky Cond. | Air | Dwpt | Max. | Min. | Relative Humidity | Wind Chill (°C) | Heat Index (°C) | altimeter (cm) | sea level (mb) | 1 hr | 3 hr | 6 hr |
| 6 hour | |||||||||||||||||
| Temperature (ºC) | Pressure | Precipitation (cm) | |||||||||||||||